GLENN Weather Reports


time (UTC)temp
C
wind
direction
speed
KPH
gust
KPH
rain 1hr
cm
rain 24hr
cm
rain mn
cm
humidity
%
barometer
mb
20260904064527 20 145 14.5 24.1 0.00 0.00 0.00 26 1010.5
20260904063005 20 98 16.1 25.7 0.00 0.00 0.00 27 1010.6
20260904061527 20 141 19.3 30.6 0.00 0.00 0.00 27 1010.5
20260904060019 20 117 14.5 24.1 0.00 0.00 0.00 28 1010.6
20260904054524 20 129 19.3 25.7 0.00 0.00 0.00 28 1010.7
20260904053028 20 120 12.9 22.5 0.00 0.00 0.00 28 1010.8
20260904051506 20 82 4.8 12.9 0.00 0.00 0.00 27 1011.0
20260904050018 20 104 4.8 17.7 0.00 0.00 0.00 26 1011.0
20260904044535 20 128 8.0 19.3 0.00 0.00 0.00 26 1011.0
20260904043035 20 103 9.7 20.9 0.00 0.00 0.00 27 1011.3
20260904041532 19 123 1.6 4.8 0.00 0.00 0.00 28 1011.6
20260904040011 19 86 1.6 3.2 0.00 0.00 0.00 29 1011.8
20260904034519 19 80 3.2 6.4 0.00 0.00 0.00 30 1012.0
20260904033025 19 96 6.4 11.3 0.00 0.00 0.00 30 1012.2
20260904031529 20 110 4.8 9.7 0.00 0.00 0.00 30 1012.4
20260904030031 20 121 6.4 14.5 0.00 0.00 0.00 29 1012.6
20260904024516 20 139 11.3 17.7 0.00 0.00 0.00 30 1012.6
20260904023020 19 136 11.3 19.3 0.00 0.00 0.00 31 1012.5
20260904021527 19 165 9.7 17.7 0.00 0.00 0.00 31 1012.5
20260904020028 20 166 8.0 20.9 0.00 0.00 0.00 32 1012.4
20260904014534 19 161 8.0 12.9 0.00 0.00 0.00 33 1012.3
20260904013004 19 150 4.8 8.0 0.00 0.00 0.00 34 1012.2
20260904011505 20 215 11.3 19.3 0.00 0.00 0.00 31 1012.1
20260904010004 20 192 6.4 12.9 0.00 0.00 0.00 32 1012.1
20260904004503 21 205 9.7 17.7 0.00 0.00 0.00 30 1012.0
20260904003004 22 197 8.0 14.5 0.00 0.00 0.00 31 1011.8
20260904001505 21 205 8.0 20.9 0.00 0.00 0.00 31 1011.7
20260904000005 21 185 12.9 24.1 0.00 0.00 0.00 30 1011.9
20260903234510 21 223 3.2 14.5 0.00 0.00 0.00 34 1011.7
20260903233002 22 197 3.2 11.3 0.00 0.00 0.00 29 1011.7
20260903231504 21 105 3.2 9.7 0.00 0.00 0.00 32 1011.8
20260903230009 21 54 0.0 4.8 0.00 0.00 0.00 36 1011.8
20260903224513 21 57 0.0 3.2 0.00 0.00 0.00 37 1012.0
20260903223003 21 5 0.0 3.2 0.00 0.00 0.00 38 1012.0
20260903221505 21 352 0.0 11.3 0.00 0.00 0.00 35 1012.0
20260903220007 21 360 4.8 9.7 0.00 0.00 0.00 34 1011.9
20260903214504 21 327 8.0 12.9 0.00 0.00 0.00 32 1012.0
20260903213004 21 254 3.2 8.0 0.00 0.00 0.00 32 1011.8
20260903211508 21 166 3.2 12.9 0.00 0.00 0.00 32 1011.8
20260903210009 22 276 4.8 11.3 0.00 0.00 0.00 33 1011.8
20260903204510 22 213 6.4 8.0 0.00 0.00 0.00 30 1011.8
20260903203015 22 47 1.6 12.9 0.00 0.00 0.00 31 1011.8
20260903201508 22 24 4.8 14.5 0.00 0.00 0.00 29 1011.8
20260903200009 22 56 4.8 14.5 0.00 0.00 0.00 32 1012.2
20260903194517 21 128 3.2 12.9 0.00 0.00 0.00 34 1012.3
20260903193010 22 323 3.2 12.9 0.00 0.00 0.00 31 1012.4
20260903191512 21 318 9.7 17.7 0.00 0.00 0.00 32 1012.7
20260903190012 20 319 3.2 14.5 0.00 0.00 0.00 33 1012.7
20260903184513 20 237 4.8 14.5 0.00 0.00 0.00 31 1013.0
20260903183011 21 360 4.8 12.9 0.00 0.00 0.00 33 1013.0
20260903181512 20 53 3.2 14.5 0.00 0.00 0.00 35 1013.0
20260903180016 18 41 3.2 8.0 0.00 0.00 0.00 35 1013.3
20260903174514 18 341 3.2 4.8 0.00 0.00 0.00 33 1013.2
20260903173019 19 291 1.6 11.3 0.00 0.00 0.00 34 1013.3
20260903171516 19 327 3.2 11.3 0.00 0.00 0.00 33 1013.3
20260903170014 18 336 4.8 9.7 0.00 0.00 0.00 34 1013.2
20260903164517 18 269 4.8 14.5 0.00 0.00 0.00 33 1013.4
20260903163003 18 192 6.4 11.3 0.00 0.00 0.00 33 1013.4
20260903161505 18 199 8.0 14.5 0.00 0.00 0.00 36 1013.4
20260903160014 17 202 6.4 16.1 0.00 0.00 0.00 35 1013.3
20260903154509 17 179 4.8 12.9 0.00 0.00 0.00 37 1013.3
20260903153009 17 179 6.4 12.9 0.00 0.00 0.00 37 1013.4
20260903151504 16 194 8.0 16.1 0.00 0.00 0.00 38 1013.5
20260903150011 16 154 9.7 16.1 0.00 0.00 0.00 38 1013.5
20260903144510 16 162 9.7 14.5 0.00 0.00 0.00 38 1013.6
20260903143020 15 151 9.7 16.1 0.00 0.00 0.00 40 1013.7
20260903141512 15 148 8.0 14.5 0.00 0.00 0.00 40 1013.4
20260903140015 14 136 9.7 14.5 0.00 0.00 0.00 41 1013.5
20260903134511 13 149 9.7 16.1 0.00 0.00 0.00 42 1013.3
20260903133015 13 167 9.7 17.7 0.00 0.00 0.00 41 1013.4
20260903131512 13 165 8.0 16.1 0.00 0.00 0.00 40 1013.2
20260903130017 13 169 1.6 8.0 0.00 0.00 0.00 42 1012.8
20260903124509 13 221 1.6 4.8 0.00 0.00 0.00 40 1012.6
20260903123012 13 73 0.0 3.2 0.00 0.00 0.00 41 1012.3
20260903121528 13 89 0.0 4.8 0.00 0.00 0.00 41 1012.3
20260903120018 13 225 0.0 9.7 0.00 0.00 0.00 40 1012.2
20260903114517 13 312 3.2 6.4 0.00 0.00 0.00 38 1012.1
20260903113022 13 279 3.2 9.7 0.00 0.00 0.00 38 1012.0
20260903111519 13 44 1.6 4.8 0.00 0.00 0.00 41 1011.8
20260903110019 13 35 0.0 0.0 0.00 0.00 0.00 39 1011.6
20260903104520 12 88 4.8 8.0 0.00 0.00 0.00 40 1011.3
20260903103008 12 96 1.6 6.4 0.00 0.00 0.00 50 1011.0
20260903101513 12 68 1.6 11.3 0.00 0.00 0.00 51 1011.1
20260903100022 13 254 3.2 6.4 0.00 0.00 0.00 41 1010.9
20260903094522 14 90 3.2 4.8 0.00 0.00 0.00 37 1010.7
20260903093027 13 86 4.8 4.8 0.00 0.00 0.00 41 1010.7
20260903091517 12 84 0.0 4.8 0.00 0.00 0.00 45 1011.0
20260903090016 13 88 1.6 3.2 0.00 0.00 0.00 44 1010.9
20260903084525 13 97 4.8 9.7 0.00 0.00 0.00 39 1010.8
20260903083028 11 112 1.6 4.8 0.00 0.00 0.00 51 1011.0
20260903081525 11 119 3.2 4.8 0.00 0.00 0.00 54 1011.1
20260903080013 13 277 0.0 3.2 0.00 0.00 0.00 45 1010.9
20260903074518 12 78 3.2 8.0 0.00 0.00 0.00 47 1010.8
20260903073005 12 73 3.2 6.4 0.00 0.00 0.00 47 1011.1
20260903071505 12 90 3.2 9.7 0.00 0.00 0.00 50 1011.1
20260903070011 12 94 0.0 4.8 0.00 0.00 0.00 48 1011.0